{"data":{"norad_id":53783,"intl_designator":"2022-111L","name":"STARLINK-4536","alt_names":[],"object_type":"PAYLOAD","status":"ACTIVE","operator":null,"country":"US","launch_date":"2022-09-11","launch_site_code":"AFETR","launch_vehicle":null,"mission":null,"orbit_class":"UNKNOWN","rcs_meters":null,"size_class":null,"mass_kg":null,"dimensions":null,"purposes":["comms"],"wikipedia_slug":null,"has_3d_model":false,"image_url":null,"decayed_at":null,"tle_current":{"epoch":"2026-09-20T05:05:30.956640Z","epoch_age_seconds":109390,"freshness":"FRESH","line1":"1 53783U 22111L   26263.21216385  .00000994  00000+0  39387-4 0  9995","line2":"2 53783  53.1614 117.3365 0001182  99.4836 260.6300 15.35404972223100","mean_motion":15.35404972,"eccentricity":0.0001182,"inclination_deg":53.1614,"raan_deg":117.3365,"arg_perigee_deg":99.4836,"mean_anomaly_deg":260.63,"bstar":3.9387e-5,"rev_number":22310,"period_min":93.786331701419,"perigee_km":458.90964653995,"apogee_km":460.52611543381,"semimajor_km":6837.8548809869,"source":"CELESTRAK","updated_at":"2026-09-21T09:00:32.992994Z"}}}